{"data":{"norad_id":63888,"intl_designator":"2025-094AA","name":"STARLINK-33981","alt_names":[],"object_type":"PAYLOAD","status":"ACTIVE","operator":null,"country":"US","launch_date":"2025-05-10","launch_site_code":"AFWTR","launch_vehicle":null,"mission":null,"orbit_class":"UNKNOWN","rcs_meters":null,"size_class":null,"mass_kg":null,"dimensions":null,"purposes":["comms"],"wikipedia_slug":null,"has_3d_model":false,"image_url":null,"decayed_at":null,"tle_current":{"epoch":"2026-05-25T03:29:09.974976Z","epoch_age_seconds":56499,"freshness":"FRESH","line1":"1 63888U 25094AA  26145.14525434  .00002929  00000+0  25315-3 0  9999","line2":"2 63888  70.0023  41.7581 0002582 269.3127  90.7736 14.98338044 58650","mean_motion":14.98338044,"eccentricity":0.0002582,"inclination_deg":70.0023,"raan_deg":41.7581,"arg_perigee_deg":269.3127,"mean_anomaly_deg":90.7736,"bstar":0.00025315,"rev_number":5865,"period_min":96.106483164222,"perigee_km":570.23648226762,"apogee_km":573.8255490309,"semimajor_km":6950.1680156493,"source":"CELESTRAK","updated_at":"2026-05-25T13:38:20.174326Z"}}}